FW4529 Weather Reports


time (UTC)temp
C
wind
direction
speed
KPH
gust
KPH
rain 1hr
cm
rain 24hr
cm
rain mn
cm
humidity
%
barometer
mb
20260905132233 21 172 9.7 20.9 0.00 0.81 0.25 56 1022.5
20260905131235 20 254 9.7 20.9 0.00 0.81 0.25 59 1022.5
20260905130234 21 311 12.9 27.4 0.00 0.81 0.25 56 1022.4
20260905125236 22 104 6.4 11.3 0.00 0.81 0.25 57 1022.2
20260905124234 21 27 9.7 20.9 0.00 0.81 0.25 59 1022.4
20260905123236 20 359 8.0 12.9 0.00 0.81 0.25 62 1022.4
20260905122233 21 1 11.3 22.5 0.00 0.81 0.25 61 1022.8
20260905121236 21 280 9.7 20.9 0.00 0.81 0.25 62 1022.7
20260905120234 20 58 8.0 16.1 0.00 0.81 0.25 65 1022.7
20260905115236 20 317 16.1 20.9 0.00 0.81 0.25 63 1022.8
20260905114233 21 183 6.4 14.5 0.00 0.81 0.25 62 1023.0
20260905113235 21 333 12.9 22.5 0.00 0.81 0.25 61 1023.0
20260905112234 20 26 11.3 24.1 0.00 0.81 0.25 62 1022.9
20260905111236 20 220 11.3 20.9 0.00 0.81 0.25 62 1023.0
20260905110314 20 321 9.7 20.9 0.00 0.81 0.25 62 1022.9
20260905105234 20 345 16.1 27.4 0.00 0.81 0.25 66 1022.7
20260905104234 20 322 9.7 17.7 0.00 0.81 0.25 66 1022.7
20260905103235 20 214 12.9 24.1 0.00 0.81 0.25 68 1023.1
20260905102234 19 209 8.0 14.5 0.00 0.81 0.25 69 1022.8
20260905101255 19 227 11.3 25.7 0.00 0.81 0.25 68 1023.0
20260905100253 20 75 11.3 24.1 0.00 0.81 0.25 70 1023.0
20260905095236 19 359 11.3 17.7 0.00 0.81 0.25 70 1022.6
20260905094234 19 95 11.3 20.9 0.00 0.81 0.25 69 1022.8
20260905093256 18 331 11.3 20.9 0.00 0.81 0.25 73 1022.6
20260905092234 19 52 11.3 24.1 0.00 0.81 0.25 71 1022.8
20260905091236 18 28 11.3 29.0 0.00 0.81 0.25 72 1022.7
20260905090234 18 85 11.3 22.5 0.00 0.81 0.25 72 1022.7
20260905085235 18 145 6.4 11.3 0.00 0.81 0.25 75 1022.8
20260905084233 18 80 9.7 17.7 0.00 0.81 0.25 76 1022.6
20260905083235 18 88 6.4 11.3 0.00 0.81 0.25 77 1022.6
20260905082235 17 198 9.7 20.9 0.00 0.81 0.25 77 1022.4
20260905081236 18 338 8.0 27.4 0.00 0.81 0.25 78 1022.3
20260905080234 17 310 9.7 17.7 0.00 0.81 0.25 78 1022.4
20260905075316 17 131 8.0 16.1 0.00 0.81 0.25 79 1022.5
20260905074233 17 318 9.7 17.7 0.00 0.81 0.25 80 1021.9
20260905073236 17 18 8.0 12.9 0.00 0.81 0.25 82 1022.1
20260905072234 17 326 14.5 24.1 0.00 0.81 0.25 82 1022.0
20260905071235 17 305 11.3 22.5 0.00 0.81 0.25 83 1021.8
20260905070234 17 140 12.9 24.1 0.00 0.81 0.25 84 1021.6
20260905065256 16 25 11.3 25.7 0.00 0.81 0.25 86 1021.6
20260905064233 16 351 9.7 20.9 0.00 0.81 0.25 87 1021.6
20260905063236 16 335 8.0 17.7 0.00 0.81 0.25 89 1021.5
20260905062233 16 352 9.7 17.7 0.00 0.81 0.25 90 1021.4
20260905061236 16 133 3.2 12.9 0.00 0.81 0.25 91 1021.0
20260905060234 16 108 6.4 14.5 0.00 0.81 0.25 91 1021.3
20260905055236 15 149 6.4 12.9 0.00 0.81 0.25 91 1021.3
20260905054234 15 176 8.0 12.9 0.00 0.81 0.25 92 1021.2
20260905053320 15 54 4.8 11.3 0.00 0.81 0.25 92 1021.0
20260905052235 15 138 1.6 8.0 0.00 0.81 0.25 92 1020.8
20260905051236 15 74 3.2 8.0 0.00 0.81 0.25 92 1020.6
20260905050254 15 156 4.8 12.9 0.00 0.81 0.25 92 1020.6
20260905045235 15 346 3.2 8.0 0.00 0.81 0.25 92 1020.5
20260905044234 15 110 4.8 9.7 0.00 0.81 0.25 92 1020.5
20260905043236 15 82 6.4 11.3 0.00 0.81 0.25 92 1020.3
20260905042233 15 35 4.8 8.0 0.00 0.81 0.25 92 1020.2
20260905041236 15 34 4.8 11.3 0.00 0.81 0.25 92 1020.2
20260905040254 15 81 4.8 9.7 0.00 0.81 0.25 92 1020.0
20260905035234 15 65 4.8 9.7 0.00 0.81 0.25 93 1019.9
20260905034234 15 118 4.8 9.7 0.00 0.81 0.25 93 1020.0
20260905033236 15 123 3.2 9.7 0.00 0.81 0.25 93 1019.9
20260905032233 15 77 6.4 14.5 0.00 0.81 0.25 92 1019.6
20260905031236 16 133 3.2 8.0 0.00 0.81 0.25 92 1019.5
20260905030252 16 20 8.0 14.5 0.00 0.81 0.25 92 1019.3
20260905025236 16 48 4.8 9.7 0.00 0.81 0.25 92 1019.2
20260905024234 16 44 6.4 16.1 0.00 0.81 0.25 92 1019.1
20260905023236 16 175 3.2 8.0 0.00 0.81 0.25 93 1018.7
20260905022235 16 146 4.8 9.7 0.00 0.81 0.25 93 1018.8
20260905021236 16 121 4.8 11.3 0.00 0.81 0.25 93 1018.7
20260905020234 16 128 4.8 9.7 0.00 0.81 0.25 93 1018.2
20260905015236 16 88 1.6 4.8 0.00 0.81 0.25 94 1017.9
20260905014233 16 127 4.8 11.3 0.00 0.81 0.25 94 1018.7
20260905013234 16 347 4.8 9.7 0.00 0.81 0.25 95 1018.8
20260905012234 15 127 3.2 4.8 0.00 0.81 0.25 96 1018.4
20260905011256 16 118 3.2 4.8 0.00 0.81 0.25 96 1018.0
20260905010234 15 178 4.8 8.0 0.00 0.81 0.25 96 1018.1
20260905005236 15 93 4.8 11.3 0.00 0.81 0.25 97 1018.0
20260905004253 15 255 3.2 4.8 0.00 0.81 0.25 97 1018.4
20260905003236 15 157 4.8 8.0 0.00 0.81 0.25 98 1018.3
20260905002234 15 204 6.4 9.7 0.00 0.81 0.25 98 1018.4
20260905001236 15 156 8.0 11.3 0.03 0.81 0.25 98 1018.1
20260905000234 15 170 6.4 14.5 0.03 0.81 0.25 98 1018.0
20260904235236 15 306 4.8 9.7 0.05 0.81 0.25 98 1018.0
20260904234234 15 28 8.0 14.5 0.05 0.81 0.25 98 1017.9
20260904233316 16 42 4.8 9.7 0.08 0.81 0.25 98 1018.0
20260904232235 16 174 4.8 8.0 0.10 0.81 0.25 98 1017.7
20260904231236 16 177 6.4 9.7 0.15 0.79 0.23 98 1017.4
20260904230234 15 57 6.4 16.1 0.23 0.79 0.23 98 1017.2
20260904225255 16 145 4.8 9.7 0.20 0.76 0.20 98 1017.0
20260904224234 15 4 4.8 9.7 0.25 0.76 0.20 98 1016.8
20260904223235 16 353 6.4 12.9 0.25 0.74 0.18 98 1017.0
20260904222234 16 23 4.8 11.3 0.28 0.71 0.15 98 1017.3
20260904221236 16 29 4.8 8.0 0.20 0.64 0.08 97 1017.1
20260904220235 16 90 4.8 12.9 0.15 0.56 0.00 97 1017.0
20260904215235 16 79 6.4 11.3 0.28 0.56 0.56 97 1016.8
20260904214254 16 329 6.4 12.9 0.25 0.51 0.51 96 1017.1
20260904213235 16 77 4.8 8.0 0.25 0.48 0.48 96 1017.2
20260904212234 16 1 8.0 16.1 0.33 0.43 0.43 96 1017.1
20260904211234 16 130 3.2 4.8 0.33 0.43 0.43 96 1016.7
20260904210235 16 156 3.2 8.0 0.30 0.41 0.41 95 1017.0
20260904205255 16 2 6.4 11.3 0.18 0.28 0.28 94 1017.0
20260904204234 16 17 8.0 14.5 0.15 0.25 0.25 93 1016.9
20260904203226 17 321 6.4 14.5 0.23 0.23 0.23 91 1017.4
20260904202234 17 58 6.4 12.9 0.10 0.10 0.10 89 1017.1
20260904201236 17 116 4.8 9.7 0.10 0.10 0.10 90 1016.6
20260904200233 17 7 9.7 20.9 0.10 0.10 0.10 91 1016.8
20260904195256 17 257 11.3 17.7 0.10 0.10 0.10 90 1017.2
20260904194235 18 301 14.5 24.1 0.10 0.10 0.10 88 1017.0
20260904193236 22 315 11.3 17.7 0.00 0.00 0.00 70 1016.8
20260904192234 22 19 8.0 17.7 0.00 0.00 0.00 69 1015.4
20260904191236 22 290 12.9 27.4 0.00 0.00 0.00 68 1015.4
20260904190254 23 342 9.7 16.1 0.00 0.00 0.00 69 1015.3
20260904185234 23 2 11.3 20.9 0.00 0.00 0.00 71 1015.2
20260904184234 24 329 16.1 33.8 0.00 0.00 0.00 76 1015.1
20260904183236 25 290 16.1 35.4 0.00 0.00 0.00 71 1013.7
20260904182255 25 168 6.4 11.3 0.00 0.00 0.00 69 1013.1
20260904181255 25 174 4.8 9.7 0.00 0.00 0.00 69 1012.8
20260904180252 25 190 6.4 14.5 0.00 0.00 0.00 69 1013.0
20260904175235 25 119 4.8 8.0 0.00 0.00 0.00 69 1012.7
20260904174233 25 170 6.4 12.9 0.00 0.00 0.00 69 1013.0
20260904173235 25 193 4.8 8.0 0.00 0.00 0.00 70 1012.9
20260904172258 25 174 4.8 11.3 0.00 0.00 0.00 70 1013.4
20260904171236 25 134 4.8 11.3 0.00 0.00 0.00 70 1013.5
20260904170234 25 194 3.2 8.0 0.00 0.00 0.00 70 1013.6
20260904165235 25 190 4.8 11.3 0.00 0.00 0.00 70 1013.7
20260904164234 25 190 6.4 14.5 0.00 0.00 0.00 70 1013.8
20260904163235 25 174 8.0 14.5 0.00 0.00 0.00 70 1013.8
20260904162235 25 179 6.4 11.3 0.00 0.00 0.00 70 1013.9
20260904161235 25 130 4.8 9.7 0.00 0.00 0.00 71 1013.9
20260904160234 25 190 6.4 11.3 0.00 0.00 0.00 71 1014.1
20260904155236 25 127 4.8 9.7 0.00 0.00 0.00 71 1014.1
20260904154235 25 176 8.0 17.7 0.00 0.00 0.00 71 1014.1
20260904153255 25 175 4.8 8.0 0.00 0.00 0.00 71 1014.2
20260904152235 25 159 6.4 9.7 0.00 0.00 0.00 72 1014.2
20260904151255 25 139 8.0 16.1 0.00 0.00 0.00 70 1014.5
20260904150233 25 144 6.4 11.3 0.00 0.00 0.00 71 1014.7
20260904145227 25 176 8.0 12.9 0.00 0.00 0.00 71 1014.9
20260904144253 25 149 4.8 9.7 0.00 0.00 0.00 71 1014.7
20260904143235 25 164 4.8 11.3 0.00 0.00 0.00 70 1014.9
20260904142236 25 151 6.4 14.5 0.00 0.00 0.00 71 1015.0
20260904141235 25 172 4.8 8.0 0.00 0.00 0.00 71 1015.3
20260904140234 25 181 4.8 12.9 0.00 0.00 0.00 71 1015.4
20260904135226 25 164 4.8 9.7 0.00 0.00 0.00 69 1015.7
20260904134234 24 271 6.4 9.7 0.00 0.00 0.00 71 1015.7
20260904133235 23 141 3.2 4.8 0.00 0.00 0.00 72 1015.7